world map with PNA marked

PNA - Airport

This information may not be accurate or current and is not valid for navigation or flight planning. No warranty of fitness for any purpose is made or implied.

flag of Navarraflag of Spain

Donate via PayPal

Additional information is available on the NEW Great Circle Mapper

Location
City:  Pamplona, Navarra, Spain
ICAO / IATA:LEPP / PNA

Details
Type:Airport (Aerodrome, Airfield)
Use:Public/Civil
Latitude:42°46'12"N (42.770039)
Longitude:1°38'47"W (-1.646330)
Datum:WGS 1984
Elevation:1504 ft (458 m)
Runways:1
Longest:7241 × 148 ft (2207 × 45 m)

Time
Timezone:UTC+1 (DST+4)
Local Time:

Weather
METAR:LEPP  200730Z 00000KT 9999 BKN012 08/08 Q1033
TAF:LEPP  200200Z 2003/2103 VRB05KT 9999 BKN025 TX13/2014Z TN04/2006Z TEMPO 2010/2018 36010KT

Related Locations
Nearby:
Farthest:NZFT: 12274 mi / 19753 km
Flat Point, NZ

Find:

   beyond  
but within

Other Information
Maps:
Links:
Sources:

  


 


Great Circle Mapper   Great Circle Mapper
Great Circle Mapper FAQ   Great Circle Mapper FAQ
  Karl's Home Page
KLSē   KLSē Home
   GC on Facebook
Airlines of the World   Airlines of the World
Donate via PayPal


Copyright © 2004-2014, Karl L. Swartz. All rights reserved.
All trademarks mentioned herein belong to their respective owners.

Please see credits for attribution and copyright information.

Karl Swartz <karl@kls2.com>
  Powered by FreeBSD
Valid HTML 4.01!
Labeled with ICRA
hCard Microformat
Geo Microformat